{"data":{"norad_id":67177,"intl_designator":"2025-303Q","name":"STARLINK-35853","alt_names":[],"object_type":"PAYLOAD","status":"ACTIVE","operator":null,"country":"US","launch_date":"2025-12-17","launch_site_code":"AFETR","launch_vehicle":null,"mission":null,"orbit_class":"UNKNOWN","rcs_meters":null,"size_class":null,"mass_kg":null,"dimensions":null,"purposes":["comms"],"wikipedia_slug":null,"has_3d_model":false,"image_url":null,"decayed_at":null,"tle_current":{"epoch":"2026-09-20T03:27:43.684704Z","epoch_age_seconds":109796,"freshness":"FRESH","line1":"1 67177U 25303Q   26263.14425561  .00008504  00000+0  31818-3 0  9998","line2":"2 67177  43.0024 292.6075 0001362 264.3385  95.7312 15.27583823 42475","mean_motion":15.27583823,"eccentricity":0.0001362,"inclination_deg":43.0024,"raan_deg":292.6075,"arg_perigee_deg":264.3385,"mean_anomaly_deg":95.7312,"bstar":0.00031818,"rev_number":4247,"period_min":94.266512797445,"perigee_km":482.10315663907,"apogee_km":483.97214061335,"semimajor_km":6861.1746486262,"source":"CELESTRAK","updated_at":"2026-09-21T09:00:36.113018Z"}}}